Regional Weather Roundup
Issued by NWS Boston, MA

Current Version | Previous Version | Text Only | Print | Product List | Glossary Off
Versions: 1 2 3 4 5 6 7 8 9 10 11 12 13 14 15 16 17 18 19 20 21 22 23 24 25 26 27 28 29 30 31 32 33 34 35 36 37 38 39 40 41 42 43 44 45 46 47 48 49 50
835 ASUS41 KBOX 290810 RWRBOX REGIONAL WEATHER ROUNDUP NATIONAL WEATHER SERVICE TAUNTON MA 400 AM EDT MON MAY 29 2017 NOTE: "FAIR" INDICATES FEW OR NO CLOUDS BELOW 12,000 FEET WITH NO SIGNIFICANT WEATHER AND/OR OBSTRUCTIONS TO VISIBILITY. MAZALL-290900- EASTERN MASSACHUSETTS CITY SKY/WX TMP DP RH WIND PRES REMARKS BOSTON CLOUDY 53 50 89 E6 30.00S BEVERLY CLOUDY 53 51 93 E6 30.00R LAWRENCE CLOUDY 56 50 80 SE3 30.01S BEDFORD PTCLDY 50 45 83 E5 29.98S BLUE HILL N/A 49 47 93 E12 29.97S NORWOOD CLOUDY 51 49 92 NE3 29.98S MARSHFIELD PTCLDY 52 50 93 SE7 30.00R PLYMOUTH CLOUDY 49 47 93 E5 29.99S TAUNTON PTCLDY 46 44 93 CALM 29.97F NEW BEDFORD PTCLDY 52 49 89 E8 29.96F $$ MAZALL-290900- CAPE COD AND THE ISLANDS CITY SKY/WX TMP DP RH WIND PRES REMARKS FALMOUTH N/A N/A N/A N/A MISG N/A HYANNIS CLOUDY 50 48 93 VRB5 29.97S CHATHAM CLOUDY 49 47 93 E12 30.01S PROVINCETOWN CLOUDY 49 47 93 E8 30.01S NANTUCKET CLOUDY 48 45 89 E14 29.98S MARTHAS VNYRD CLOUDY 51 48 89 E9 29.96F $$ MAZALL-290900- CENTRAL AND WESTERN MASSACHUSETTS CITY SKY/WX TMP DP RH WIND PRES REMARKS WORCESTER CLEAR 49 46 90 E3 29.97S FITCHBURG CLOUDY 52 49 89 CALM 29.98S ORANGE PTCLDY 47 47 100 CALM 29.96F FOG SPRINGFIELD CLOUDY 51 47 87 CALM 29.94F WESTFIELD NOT AVBL NORTH ADAMS N/A N/A N/A N/A MISG 29.92S $$ RIZALL-290900- RHODE ISLAND CITY SKY/WX TMP DP RH WIND PRES REMARKS PROVIDENCE PTCLDY 52 50 93 CALM 29.97F NEWPORT PTCLDY 52 50 93 E6 29.95F BLOCK ISLAND CLOUDY 53 50 89 E8 29.95S SMITHFIELD PTCLDY 47 47 100 E5 29.97S WESTERLY MOCLDY 54 51 90 NE7 29.95S $$ CTZALL-290900- CONNECTICUT CITY SKY/WX TMP DP RH WIND PRES REMARKS BRADLEY INTL MOCLDY 53 50 89 SE3 29.94F HARTFORD CLOUDY 54 50 86 CALM 29.94F BRIDGEPORT CLOUDY 58 53 84 E16 29.90F DANBURY CLOUDY 54 52 93 E7 29.91F GROTON MOCLDY 54 50 86 NE8 29.93F NEW HAVEN CLOUDY 55 52 89 NE6 29.92S CHESTER CLOUDY 52 52 100 CALM 29.93S MERIDEN CLOUDY 55 51 86 CALM 29.93F WILLIMANTIC MOCLDY 53 50 89 CALM 29.96S OXFORD N/A 54 46 76 E6 29.93S $$ MEZ002-015-021-024-NHZ003-005-008-011-012-014-VTZ005-008-290900- NORTHERN NEW ENGLAND CITY SKY/WX TMP DP RH WIND PRES REMARKS PORTLAND ME CLOUDY 49 47 93 SE6 30.04R BANGOR ME CLOUDY 45 43 93 SE9 30.07S CONCORD NH CLOUDY 52 49 89 SE3 29.99S MANCHESTER NH CLOUDY 52 48 86 NE3 29.98S NASHUA NH CLOUDY 55 51 86 SE5 29.99S PORTSMOUTH NH CLOUDY 51 50 94 E9 29.99S JAFFREY NH MOCLDY 49 49 100 CALM 29.97F KEENE NH PTCLDY 50 49 96 CALM 29.97S BURLINGTON VT CLOUDY 64 55 72 S9 29.85F MT. WASHINGTON LGT RAIN 39 39 100 S24 N/A VSB 0 WCI 28 $$ NYZ052-076-290900- EASTERN NEW YORK CITY SKY/WX TMP DP RH WIND PRES REMARKS ALBANY MOCLDY 56 47 71 SE8 29.89S NEW YORK CITY LGT RAIN 59 54 83 E9 29.87F $$ ANZALL-290900- MARINE OBSERVATIONS STATION/POSITION TIME TEMP WIND PRES VSBY WAVE AIR SEA DIR/SP/G HT/PER (UTC) (F) (DEG/KT/KT) (MB) (MI) (FT/S) BOSTON BUOY 0650 52 53 120/ 8/ 10 1014.8 2/ 7 BUZZARDS BAY 0700 52 100/ 14/ 15 1015.0R NANTUCKET SOUND 0750 54 1014.8R 2/ 3 MASS BAY-STELLWA 0704 51 51 120/ 10/ 12 1015.0R 2/ 8 ISLE OF SHOALS 0700 50 130/ 15/ 16 1015.5R S OF BLOCK IS 0755 54 N/A 3/ 4 $$ ......................KEY......................... SKY/WX - SKY CONDITION/PRESENT WEATHER TMP - TEMPERATURE IN FAHRENHEIT DWPT - DEWPOINT IN FAHRENHEIT RH - RELATIVE HUMIDITY IN PERCENT WIND - DIRECTION AND SPEED IN MPH PRES - MEAN SEA LEVEL PRESSURE IN INCHES OF HG WCI - WIND CHILL INDEX VSB - VISIBILITY IN MILES HX - HEAT INDEX TC - TEMPERATURE IN CELSIUS VRB - VARIABLE WIND DIRECTION N/A - NOT AVAILABLE

USA.gov is the U.S. government's official web portal to all federal, state and local government web resources and services.